Regional Weather Roundup
Issued by NWS

Home | Current Version | Previous Version | Graphics & Text | Print | Product List | Glossary On
Versions: 1 2 3 4 5 6 7 8 9 10 11 12 13 14 15 16 17 18 19 20 21 22 23 24 25 26 27 28 29 30 31 32 33 34 35 36 37 38 39 40 41 42 43 44 45 46 47 48 49 50
000
ASUS43 KBIS 071210
RWRND

NORTH DAKOTA REGIONAL WEATHER ROUNDUP
NATIONAL WEATHER SERVICE BISMARCK ND
700 AM CDT TUE JUL 07 2015

NOTE: "FAIR" INDICATES FEW OR NO CLOUDS BELOW 12,000 FEET WITH NO
SIGNIFICANT WEATHER AND/OR OBSTRUCTIONS TO VISIBILITY.


NDZ001>003-009>011-017-071300-
NORTHWEST NORTH DAKOTA

CITY           SKY/WX    TMP DP  RH WIND       PRES   REMARKS
WILLISTON      PTCLDY    56  51  84 CALM      30.14S HAZE
6HR MIN TEMP:  51; 6HR MAX TEMP:  58;

MINOT          CLEAR     53  47  79 SW5       30.15S
MINOT AFB      CLEAR     47  47 100 S3        30.14S
$$

NDZ018>021-031>035-040>046-071300-
SOUTHWEST NORTH DAKOTA

CITY           SKY/WX    TMP DP  RH WIND       PRES   REMARKS
BISMARCK       CLEAR     48  46  93 CALM      30.20S
6HR MIN TEMP:  45; 6HR MAX TEMP:  51;

DICKINSON      CLOUDY    52  49  89 SE8       30.14F FOG
GARRISON         N/A     52  47  83 CALM      30.17S
6HR MIN TEMP:  46; 6HR MAX TEMP:  53;

HETTINGER ARPT CLEAR     52  49  89 E7        30.17F FOG
$$

NDZ004>008-012>016-024-026-027-054-071300-
NORTHEAST NORTH DAKOTA

CITY           SKY/WX    TMP DP  RH WIND       PRES   REMARKS
GRAND FORKS    SUNNY     48  46  93 W3        30.17S
GRND FRKS AFB  SUNNY     49  46  89 W5        30.18R
DEVILS LAKE    SUNNY     57  46  67 SW12      30.17S
$$

NDZ022-023-025-028>030-036>039-047>053-071300-
SOUTHEAST NORTH DAKOTA

CITY           SKY/WX    TMP DP  RH WIND       PRES   REMARKS
FARGO          SUNNY     48  45  89 CALM      30.19S
6HR MIN TEMP:  42; 6HR MAX TEMP:  52;

JAMESTOWN      CLEAR     51  47  86 VRB3      30.20S
$$




USA.gov is the U.S. government's official web portal to all federal, state and local government web resources and services.